When you browse on this site, cookies collect data to enhance your experience and personalize the content and advertising you see.
Visit our Privacy Policy to learn more. By continuing to use the site, you agree to this use of cookies and data.
  • In Lithuania
  • List of Countries
  • For 7 days
  • Water Temperature
  • Weather Map
  • Weather Widgets
  • user-avatar
    Login

    Hourly Weather Skorodumovo

    Today, 23 January, Thursday

    Time Temperature Precipitation Wind Pressure Humidity
    00:00 -6°C° 0 mm 5 mps 732 mmHg 87%
    01:00 -6°C° 0 mm 5 mps 733 mmHg 88%
    02:00 -6°C° 0 mm 5 mps 733 mmHg 89%
    03:00 -7°C° 0 mm 5 mps 734 mmHg 93%
    04:00 -7°C° 0.1 mm 5 mps 734 mmHg 93%
    05:00 -8°C° 0.1 mm 6 mps 734 mmHg 93%
    06:00 -8°C° 0.1 mm 6 mps 735 mmHg 93%
    07:00 -8°C° 0.1 mm 6 mps 735 mmHg 91%
    08:00 -8°C° 0.1 mm 7 mps 736 mmHg 88%
    09:00 -8°C° 0 mm 7 mps 736 mmHg 85%
    10:00 -8°C° 0 mm 7 mps 737 mmHg 83%
    11:00 -8°C° 0 mm 7 mps 738 mmHg 80%
    12:00 -8°C° 0 mm 6 mps 738 mmHg 78%
    13:00 -8°C° 0.1 mm 6 mps 739 mmHg 78%
    14:00 -8°C° 0.1 mm 6 mps 739 mmHg 77%
    15:00 -7°C° 0 mm 5 mps 739 mmHg 77%
    16:00 -8°C° 0.1 mm 6 mps 740 mmHg 79%
    17:00 -9°C° 0.1 mm 6 mps 741 mmHg 82%
    18:00 -9°C° 0.1 mm 6 mps 741 mmHg 84%
    19:00 -10°C° 0 mm 6 mps 742 mmHg 84%
    20:00 -10°C° 0 mm 5 mps 742 mmHg 84%
    21:00 -11°C° 0 mm 5 mps 743 mmHg 84%
    22:00 -10°C° 0 mm 4 mps 743 mmHg 86%
    23:00 -10°C° 0 mm 4 mps 743 mmHg 87%

    Tomorrow, 24 January, Friday

    Time Temperature Precipitation Wind Pressure Humidity
    00:00 -10°C° 0 mm 3 mps 744 mmHg 88%
    01:00 -9°C° 0 mm 3 mps 744 mmHg 89%
    02:00 -10°C° 0 mm 4 mps 744 mmHg 89%
    03:00 -10°C° 0 mm 4 mps 744 mmHg 90%
    04:00 -10°C° 0 mm 4 mps 744 mmHg 90%
    05:00 -10°C° 0 mm 4 mps 743 mmHg 90%
    06:00 -10°C° 0 mm 4 mps 743 mmHg 90%
    07:00 -11°C° 0 mm 5 mps 743 mmHg 89%
    08:00 -10°C° 0 mm 5 mps 742 mmHg 89%
    09:00 -10°C° 0 mm 5 mps 742 mmHg 88%
    10:00 -9°C° 0.1 mm 6 mps 741 mmHg 89%
    11:00 -6°C° 0.1 mm 6 mps 741 mmHg 91%
    12:00 -6°C° 0.1 mm 7 mps 740 mmHg 92%
    13:00 -6°C° 0.1 mm 7 mps 740 mmHg 92%
    14:00 -5°C° 0.1 mm 8 mps 739 mmHg 91%
    15:00 -5°C° 0.1 mm 8 mps 738 mmHg 91%
    16:00 -5°C° 0.1 mm 8 mps 738 mmHg 93%
    17:00 -3°C° 0.1 mm 7 mps 737 mmHg 94%
    18:00 -3°C° 0.1 mm 7 mps 736 mmHg 96%
    19:00 -2°C° 0.4 mm 7 mps 736 mmHg 96%
    20:00 -2°C° 0.4 mm 7 mps 736 mmHg 97%
    21:00 -1°C° 0.4 mm 7 mps 735 mmHg 97%
    22:00 -1°C° 0.1 mm 7 mps 735 mmHg 97%
    23:00 -1°C° 0.1 mm 7 mps 735 mmHg 96%

    Day after tomorrow, 25 January, Saturday

    Time Temperature Precipitation Wind Pressure Humidity
    00:00 -1°C° 0.1 mm 7 mps 735 mmHg 96%
    01:00 -1°C° 0.1 mm 7 mps 735 mmHg 96%
    02:00 -1°C° 0.1 mm 6 mps 735 mmHg 96%
    03:00 -1°C° 0.1 mm 6 mps 735 mmHg 96%
    04:00 -1°C° 0.1 mm 6 mps 735 mmHg 96%
    05:00 -1°C° 0.1 mm 6 mps 734 mmHg 96%
    06:00 -1°C° 0.1 mm 6 mps 734 mmHg 96%
    07:00 -1°C° 0.1 mm 6 mps 734 mmHg 95%
    08:00 -1°C° 0.1 mm 7 mps 734 mmHg 94%
    09:00 -2°C° 0.1 mm 7 mps 735 mmHg 93%
    10:00 -1°C° 0 mm 7 mps 734 mmHg 93%
    11:00 -1°C° 0 mm 7 mps 734 mmHg 93%
    12:00 -1°C° 0 mm 7 mps 734 mmHg 93%
    13:00 -1°C° 0.1 mm 7 mps 734 mmHg 94%
    14:00 -1°C° 0.1 mm 7 mps 733 mmHg 95%
    15:00 -2°C° 0.1 mm 8 mps 733 mmHg 96%
    16:00 -2°C° 0.1 mm 8 mps 733 mmHg 91%
    17:00 -2°C° 0.1 mm 7 mps 733 mmHg 86%
    18:00 -2°C° 0.1 mm 7 mps 733 mmHg 82%
    19:00 -2°C° 0 mm 7 mps 733 mmHg 83%
    20:00 -3°C° 0 mm 7 mps 733 mmHg 84%
    21:00 -4°C° 0 mm 8 mps 734 mmHg 86%
    22:00 -4°C° 0 mm 7 mps 734 mmHg 83%
    23:00 -4°C° 0 mm 7 mps 735 mmHg 80%

    26 January, Sunday

    Time Temperature Precipitation Wind Pressure Humidity
    00:00 -4°C° 0 mm 6 mps 735 mmHg 77%
    01:00 -6°C° 0 mm 7 mps 736 mmHg 78%
    02:00 -6°C° 0 mm 7 mps 736 mmHg 79%
    03:00 -6°C° 0 mm 7 mps 737 mmHg 79%
    04:00 -6°C° 0 mm 7 mps 738 mmHg 79%
    05:00 -6°C° 0 mm 7 mps 738 mmHg 79%
    06:00 -6°C° 0 mm 7 mps 739 mmHg 78%
    07:00 -7°C° 0 mm 7 mps 740 mmHg 79%
    08:00 -6°C° 0 mm 6 mps 741 mmHg 81%
    09:00 -6°C° 0 mm 6 mps 742 mmHg 82%
    10:00 -5°C° 0 mm 6 mps 743 mmHg 80%
    11:00 -5°C° 0 mm 6 mps 743 mmHg 78%
    12:00 -5°C° 0 mm 6 mps 744 mmHg 77%
    13:00 -5°C° 0 mm 6 mps 745 mmHg 77%
    14:00 -5°C° 0 mm 6 mps 745 mmHg 77%
    15:00 -5°C° 0 mm 5 mps 745 mmHg 77%
    16:00 -5°C° 0 mm 5 mps 746 mmHg 79%
    17:00 -5°C° 0 mm 5 mps 746 mmHg 82%
    18:00 -5°C° 0 mm 4 mps 746 mmHg 84%
    19:00 -6°C° 0 mm 5 mps 746 mmHg 83%
    20:00 -6°C° 0 mm 5 mps 746 mmHg 82%
    21:00 -6°C° 0 mm 5 mps 746 mmHg 81%
    22:00 -5°C° 0 mm 5 mps 746 mmHg 80%
    23:00 -5°C° 0 mm 6 mps 746 mmHg 78%

    27 January, Monday

    Time Temperature Precipitation Wind Pressure Humidity
    00:00 -6°C° 0 mm 7 mps 746 mmHg 77%
    01:00 -4°C° 0 mm 7 mps 745 mmHg 79%
    02:00 -4°C° 0 mm 7 mps 745 mmHg 81%
    03:00 -4°C° 0 mm 7 mps 745 mmHg 84%
    04:00 -4°C° 0 mm 7 mps 745 mmHg 86%
    05:00 -4°C° 0 mm 7 mps 745 mmHg 88%
    06:00 -4°C° 0 mm 7 mps 745 mmHg 90%
    07:00 -4°C° 0 mm 7 mps 745 mmHg 91%
    08:00 -3°C° 0 mm 6 mps 745 mmHg 91%
    09:00 -3°C° 0 mm 6 mps 745 mmHg 91%
    10:00 -3°C° 0 mm 6 mps 745 mmHg 91%
    11:00 -3°C° 0 mm 6 mps 745 mmHg 91%
    12:00 -3°C° 0 mm 6 mps 745 mmHg 90%
    13:00 -3°C° 0 mm 6 mps 745 mmHg 90%
    14:00 -3°C° 0 mm 6 mps 745 mmHg 90%
    15:00 -3°C° 0 mm 6 mps 745 mmHg 89%
    16:00 -3°C° 0 mm 6 mps 745 mmHg 89%
    17:00 -2°C° 0 mm 5 mps 745 mmHg 88%
    18:00 -4°C° 0 mm 5 mps 745 mmHg 88%
    19:00 -4°C° 0 mm 5 mps 745 mmHg 88%
    20:00 -2°C° 0 mm 4 mps 745 mmHg 88%
    21:00 -2°C° 0 mm 4 mps 745 mmHg 88%
    22:00 -2°C° 0 mm 4 mps 745 mmHg 90%
    23:00 -1°C° 0 mm 3 mps 745 mmHg 93%

    28 January, Tuesday

    Time Temperature Precipitation Wind Pressure Humidity
    00:00 -2°C° 0 mm 3 mps 744 mmHg 95%
    01:00 -1°C° 0 mm 3 mps 744 mmHg 96%
    02:00 -1°C° 0 mm 3 mps 744 mmHg 96%
    03:00 -1°C° 0 mm 3 mps 744 mmHg 97%
    04:00 -2°C° 0.2 mm 3 mps 743 mmHg 97%
    05:00 -2°C° 0.2 mm 3 mps 743 mmHg 97%
    06:00 -2°C° 0.2 mm 3 mps 743 mmHg 97%
    07:00 -2°C° 0.3 mm 3 mps 743 mmHg 97%
    08:00 -1°C° 0.3 mm 3 mps 743 mmHg 97%
    09:00 -1°C° 0.3 mm 3 mps 743 mmHg 97%
    10:00 -1°C° 0.1 mm 3 mps 742 mmHg 97%
    11:00 -2°C° 0.1 mm 4 mps 742 mmHg 96%
    12:00 -2°C° 0.1 mm 4 mps 742 mmHg 96%
    13:00 -1°C° 0 mm 4 mps 742 mmHg 95%
    14:00 -1°C° 0 mm 4 mps 742 mmHg 94%
    15:00 -1°C° 0 mm 4 mps 742 mmHg 93%
    16:00 -1°C° 0 mm 4 mps 742 mmHg 93%
    17:00 -1°C° 0 mm 4 mps 742 mmHg 93%
    18:00 -2°C° 0 mm 4 mps 742 mmHg 93%
    19:00 -2°C° 0 mm 4 mps 742 mmHg 94%
    20:00 -2°C° 0 mm 4 mps 742 mmHg 95%
    21:00 -2°C° 0 mm 4 mps 742 mmHg 97%
    22:00 -1°C° 0 mm 4 mps 742 mmHg 96%
    23:00 -1°C° 0 mm 4 mps 742 mmHg 96%
    Show more